Home   Weather   Bucaramanga   Past weeks
Flag for Colombia

Past Weather in Bucaramanga, Colombia — Yesterday and Last 2 Weeks

Now
75 °F

Partly sunny.


Feels Like: 77 °F
Forecast: N/A
Wind: 7 mph from Northwest

Location: Bucaramanga / Palonegro

Current Time: Mar 21, 2019 at 3:47:44 pm

Latest Report: Mar 21, 2019 at 3:00 pm


Visibility: N/A

Pressure: 29.94 "Hg (26.82 "Hg at 956m altitude)

Humidity: 74%

Dew Point: 66 °F

Location of BucaramangaLocation

Past Weather in Bucaramanga — Graph

°F

Bucaramanga Temperature Yesterday

Maximum temperature yesterday: 79 °F (at 1:00 pm)
Minimum temperature yesterday: 68 °F (at 6:00 am)
Average temperature yesterday: 73 °F

High & Low Weather Summary for the Past Weeks

 TemperatureHumidityPressure
High86 °F (Mar 9, 12:00 pm)100% (Mar 6, 7:00 pm)30.08 "Hg (Mar 6, 7:00 pm)
Low66 °F (Mar 19, 2:00 am)58% (Mar 11, 12:00 pm)29.84 "Hg (Mar 13, 4:00 pm)
Average74 °F83%29.97 "Hg
* Reported Mar 6 2:00 pm — Mar 21 2:00 pm, Bucaramanga. Weather by CustomWeather, © 2019

Note: Actual official high and low records may vary slightly from our data, if they occured in-between our weather recording intervals... More about our weather records

Advertising

Bucaramanga Weather History for the Previous 24 Hours

Scroll right to see more
 ConditionsComfort  
Time TempWeatherWind HumidityBarometerVisibility
2:00 pm
Thu, Mar 21
75 °FBroken clouds.7 mph78%29.97 "Hg5 mi
1:00 pm73 °FBroken clouds.8 mph83%30.00 "Hg5 mi
12:00 pm75 °FBroken clouds.6 mph78%30.02 "Hg5 mi
11:00 am73 °FBroken clouds.3 mph78%30.05 "Hg3 mi
10:00 am73 °FBroken clouds.3 mph89%30.07 "Hg3 mi
9:00 am72 °FBroken clouds.3 mph94%30.06 "Hg2 mi
8:00 am70 °FBroken clouds.3 mph100%30.06 "Hg1 mi
7:00 am70 °FBroken clouds.3 mph100%30.02 "Hg5 mi
6:00 am68 °FBroken clouds.2 mph100%30.00 "HgN/A
11:00 pm
Wed, Mar 20
70 °FPassing clouds.No wind100%30.03 "HgN/A
10:00 pm72 °FPassing clouds.No wind94%30.03 "HgN/A
9:00 pm70 °FPassing clouds.No wind100%30.03 "HgN/A
8:00 pm72 °FPassing clouds.2 mph94%30.01 "HgN/A
7:00 pm70 °FPassing clouds.5 mph100%29.99 "HgN/A
6:00 pm72 °FScattered clouds.3 mph83%29.96 "HgN/A
5:00 pm75 °FScattered clouds.3 mph78%29.95 "HgN/A
4:00 pm79 °FScattered clouds.6 mph70%29.94 "HgN/A
3:00 pm79 °FBroken clouds.7 mph70%29.96 "HgN/A
Weather by CustomWeather, © 2019

See weather overview